Regional Weather Roundup
Issued by NWS

Home | Current Version | Previous Version | Text Only | Print | Product List | Glossary Off
Versions: 1 2 3 4 5 6 7 8 9 10 11 12 13 14 15 16 17 18 19 20 21 22 23 24 25 26 27 28 29 30 31 32 33 34 35 36 37 38 39 40 41 42 43 44 45 46 47 48 49 50

000
ASUS43 KBIS 290210
RWRND

NORTH DAKOTA REGIONAL WEATHER ROUNDUP
NATIONAL WEATHER SERVICE BISMARCK ND
900 PM CDT SUN AUG 28 2016

NOTE: "FAIR" INDICATES FEW OR NO CLOUDS BELOW 12,000 FEET WITH NO
SIGNIFICANT WEATHER AND/OR OBSTRUCTIONS TO VISIBILITY.


NDZ001>003-009>011-017-290300-
NORTHWEST NORTH DAKOTA

CITY           SKY/WX    TMP DP  RH WIND       PRES   REMARKS
WILLISTON      CLEAR     76  48  37 N12       30.04R
MINOT          CLEAR     74  55  51 NW12      29.96R
MINOT AFB      PTCLDY    75  55  48 NW9       29.96R
$$

NDZ018>021-031>035-040>046-290300-
SOUTHWEST NORTH DAKOTA

CITY           SKY/WX    TMP DP  RH WIND       PRES   REMARKS
BISMARCK       CLEAR     76  61  59 E6        29.93R
DICKINSON      CLOUDY    77  43  29 N10       30.01R
GARRISON         N/A     75  56  51 N10       29.97R
HETTINGER ARPT CLEAR     79  45  29 N10       30.01R
$$

NDZ004>008-012>016-024-026-027-054-290300-
NORTHEAST NORTH DAKOTA

CITY           SKY/WX    TMP DP  RH WIND       PRES   REMARKS
GRAND FORKS    CLOUDY    78  69  73 SE9       29.89F
DEVILS LAKE    CLEAR     74  70  87 SE5       29.93S
$$

NDZ022-023-025-028>030-036>039-047>053-290300-
SOUTHEAST NORTH DAKOTA

CITY           SKY/WX    TMP DP  RH WIND       PRES   REMARKS
FARGO          PTCLDY    83  73  72 S17G24    29.91S
JAMESTOWN      CLEAR     75  71  87 SE5       29.93R
$$





USA.gov is the U.S. government's official web portal to all federal, state and local government web resources and services.